DW9579 Weather Reports


time (UTC)temp
F
wind
direction
speed
knots
gust
knots
rain 1hr
in
rain 24hr
in
rain mn
in
humidity
%
barometer
mb
20260507052012 56 254 9.6 13.0 0.00 0.00 0.00 79 1019.1
20260507050949 56 246 7.8 12.2 0.00 0.00 0.00 78 1018.9
20260507045941 56 262 9.6 13.0 0.00 0.00 0.00 78 1018.9
20260507044942 57 257 9.6 13.0 0.00 0.00 0.00 78 1018.9
20260507043944 57 252 7.8 13.0 0.00 0.00 0.00 78 1018.9
20260507042943 57 267 9.6 13.0 0.00 0.00 0.00 78 1018.6
20260507041942 57 261 7.8 12.2 0.00 0.00 0.00 78 1018.6
20260507040939 58 257 8.7 10.4 0.00 0.00 0.00 77 1018.5
20260507035933 58 272 2.6 8.7 0.00 0.00 0.00 77 1018.4
20260507035011 58 272 0.9 7.0 0.00 0.00 0.00 77 1018.4
20260507033947 58 275 5.2 8.7 0.00 0.00 0.00 77 1018.3
20260507032945 59 269 2.6 6.1 0.00 0.00 0.00 77 1018.1
20260507031943 59 271 0.0 6.1 0.00 0.00 0.00 76 1018.1
20260507030949 58 290 0.9 6.1 0.00 0.00 0.00 76 1018.0
20260507025939 59 284 3.5 9.6 0.00 0.00 0.00 76 1017.9
20260507024938 58 290 7.0 13.9 0.00 0.00 0.00 76 1017.9
20260507023937 58 286 8.7 16.5 0.00 0.00 0.00 76 1017.8
20260507022935 59 285 10.4 18.2 0.00 0.00 0.00 76 1017.8
20260507021940 59 302 9.6 15.6 0.00 0.00 0.00 76 1017.8
20260507020943 60 293 9.6 14.8 0.00 0.00 0.00 75 1017.8
20260507015931 60 277 8.7 15.6 0.00 0.00 0.00 75 1017.8
20260507014954 60 280 9.6 17.4 0.00 0.00 0.00 75 1017.8
20260507013938 60 260 12.2 19.1 0.00 0.00 0.00 76 1017.7
20260507012937 61 269 12.2 17.4 0.00 0.00 0.00 76 1017.7
20260507011955 62 265 11.3 15.6 0.00 0.00 0.00 75 1017.7
20260507010932 62 277 9.6 14.8 0.00 0.00 0.00 74 1017.8
20260507005944 62 284 9.6 14.8 0.00 0.00 0.00 74 1017.8
20260507004945 62 286 11.3 14.8 0.00 0.00 0.00 74 1017.8
20260507003928 63 273 11.3 14.8 0.00 0.00 0.00 74 1017.7
20260507002949 63 274 8.7 15.6 0.00 0.00 0.00 74 1017.7
20260507001946 63 277 10.4 15.6 0.00 0.00 0.00 74 1017.7
20260507000949 63 273 10.4 13.9 0.00 0.00 0.00 74 1017.9
20260506235942 63 282 9.6 15.6 0.00 0.00 0.00 74 1017.8
20260506234940 63 277 9.6 14.8 0.00 0.00 0.00 74 1017.8
20260506233939 63 269 11.3 15.6 0.00 0.00 0.00 73 1017.9
20260506232958 63 269 10.4 15.6 0.00 0.00 0.00 74 1017.8
20260506231935 63 279 13.0 16.5 0.00 0.00 0.00 73 1017.8
20260506230940 64 259 12.2 16.5 0.00 0.00 0.00 73 1017.9
20260506225934 64 264 11.3 15.6 0.00 0.00 0.00 73 1018.1
20260506224932 64 265 13.0 15.6 0.00 0.00 0.00 73 1018.1
20260506223931 64 279 11.3 15.6 0.00 0.00 0.00 73 1018.4
20260506222934 64 273 11.3 16.5 0.00 0.00 0.00 72 1018.5
20260506221932 65 290 10.4 14.8 0.00 0.00 0.00 72 1018.5
20260506220931 65 273 11.3 15.6 0.00 0.00 0.00 72 1018.8
20260506215940 65 264 10.4 14.8 0.00 0.00 0.00 71 1018.9
20260506214938 66 275 9.6 13.9 0.00 0.00 0.00 69 1018.9
20260506213941 66 290 9.6 14.8 0.00 0.00 0.00 70 1018.9
20260506212942 66 268 9.6 13.9 0.00 0.00 0.00 69 1018.9
20260506211941 67 268 8.7 13.0 0.00 0.00 0.00 69 1018.9
20260506210938 67 273 7.8 12.2 0.00 0.00 0.00 69 1018.9
20260506205930 67 255 7.8 11.3 0.00 0.00 0.00 69 1019.2
20260506205011 67 265 6.1 9.6 0.00 0.00 0.00 69 1019.2
20260506203929 67 290 3.5 7.8 0.00 0.00 0.00 67 1019.3
20260506202931 67 278 3.5 8.7 0.00 0.00 0.00 67 1019.4
20260506201950 67 257 3.5 6.1 0.00 0.00 0.00 68 1019.4
20260506200933 66 261 2.6 7.0 0.00 0.00 0.00 69 1019.6
20260506195943 66 254 4.3 7.0 0.00 0.00 0.00 70 1019.8
20260506195002 65 244 3.5 7.0 0.00 0.00 0.00 70 1019.8
20260506193959 64 250 3.5 6.1 0.00 0.00 0.00 71 1019.9
20260506192936 64 254 3.5 6.1 0.00 0.00 0.00 71 1020.1
20260506191938 64 249 3.5 6.1 0.00 0.00 0.00 72 1020.1
20260506190939 63 254 4.3 7.8 0.00 0.00 0.00 72 1020.3
20260506185950 63 246 4.3 7.0 0.00 0.00 0.00 72 1020.2
20260506184947 63 232 5.2 7.8 0.00 0.00 0.00 72 1020.2
20260506183932 63 250 5.2 7.0 0.00 0.00 0.00 72 1020.4
20260506182932 63 242 5.2 7.0 0.00 0.00 0.00 72 1020.4
20260506181934 62 238 4.3 7.0 0.00 0.00 0.00 71 1020.4
20260506180931 62 229 4.3 6.1 0.00 0.00 0.00 72 1020.3
20260506175942 62 230 3.5 7.0 0.00 0.00 0.00 72 1020.3
20260506174944 62 230 3.5 6.1 0.00 0.00 0.00 72 1020.3
20260506173942 62 232 3.5 6.1 0.00 0.00 0.00 72 1020.3
20260506172940 62 201 3.5 6.1 0.00 0.00 0.00 72 1020.4
20260506171937 62 215 3.5 5.2 0.00 0.00 0.00 71 1020.4
20260506170943 62 204 1.7 5.2 0.00 0.00 0.00 72 1020.4
20260506170000 61 205 1.7 5.2 0.00 0.00 0.00 72 1020.4
20260506164936 61 198 4.3 6.1 0.00 0.00 0.00 72 1020.4
20260506163935 60 197 2.6 5.2 0.00 0.00 0.00 73 1020.4
20260506162933 60 196 2.6 5.2 0.00 0.00 0.00 73 1020.4
20260506161934 59 196 1.7 5.2 0.00 0.00 0.00 74 1020.4
20260506160934 59 167 0.9 3.5 0.00 0.00 0.00 74 1020.4
20260506155945 59 165 0.0 3.5 0.00 0.00 0.00 74 1020.4
20260506155006 58 159 0.0 3.5 0.00 0.00 0.00 75 1020.4
20260506153943 58 157 2.6 4.3 0.00 0.00 0.00 75 1020.4
20260506152945 58 295 0.0 3.5 0.00 0.00 0.00 75 1020.4
20260506151943 58 290 1.7 3.5 0.00 0.00 0.00 75 1020.4
20260506150942 58 290 0.0 3.5 0.00 0.00 0.00 75 1020.3
20260506150012 59 291 1.7 3.5 0.00 0.00 0.00 75 1020.3
20260506144948 58 291 0.0 0.0 0.00 0.00 0.00 75 1020.1
20260506143929 58 291 0.0 2.6 0.00 0.00 0.00 75 1020.1
20260506142929 58 291 0.0 3.5 0.00 0.00 0.00 75 1019.9
20260506141931 57 291 0.9 3.5 0.00 0.00 0.00 75 1019.9
20260506140929 57 291 0.0 3.5 0.00 0.00 0.00 76 1019.8
20260506135939 57 291 0.0 3.5 0.00 0.00 0.00 76 1019.6
20260506134940 57 291 0.0 4.3 0.00 0.00 0.00 76 1019.6
20260506133940 57 288 0.0 4.3 0.00 0.00 0.00 76 1019.5
20260506132938 57 293 3.5 6.1 0.00 0.00 0.00 76 1019.4
20260506131936 57 293 1.7 5.2 0.00 0.00 0.00 76 1019.4
20260506130941 57 298 1.7 4.3 0.00 0.00 0.00 75 1019.4
20260506125952 57 298 0.9 5.2 0.00 0.00 0.00 75 1019.3
20260506124928 57 301 2.6 5.2 0.00 0.00 0.00 75 1019.3
20260506123929 57 303 3.5 6.1 0.00 0.00 0.00 75 1019.2
20260506122930 57 305 2.6 6.1 0.00 0.00 0.00 75 1019.2
20260506121931 57 305 4.3 6.1 0.00 0.00 0.00 75 1019.2
20260506120950 57 300 0.9 5.2 0.00 0.00 0.00 75 1019.1
20260506115938 57 298 1.7 5.2 0.00 0.00 0.00 75 1019.0
20260506114957 57 298 2.6 6.1 0.00 0.00 0.00 75 1019.0
20260506113934 57 302 3.5 7.0 0.00 0.00 0.00 75 1018.9
20260506112936 57 301 0.0 5.2 0.00 0.00 0.00 76 1018.8
20260506111935 57 303 1.7 5.2 0.00 0.00 0.00 76 1018.8
20260506110933 57 303 1.7 6.1 0.00 0.00 0.00 76 1018.7
20260506110002 57 302 0.9 6.1 0.00 0.00 0.00 75 1018.7
20260506104939 57 301 1.7 7.0 0.00 0.00 0.00 75 1018.7
20260506103941 57 295 1.7 5.2 0.00 0.00 0.00 75 1018.7
20260506102940 57 293 2.6 6.1 0.00 0.00 0.00 76 1018.5
20260506101938 57 294 1.7 7.0 0.00 0.00 0.00 76 1018.5
20260506100937 57 296 4.3 7.8 0.00 0.00 0.00 76 1018.4
20260506095930 57 306 3.5 6.1 0.00 0.01 0.00 76 1018.6
20260506094949 57 305 2.6 5.2 0.00 0.01 0.00 76 1018.6
20260506093948 57 304 0.9 4.3 0.00 0.01 0.00 76 1018.5
20260506092926 57 304 0.0 4.3 0.00 0.01 0.00 76 1018.5
20260506091931 57 304 0.9 3.5 0.00 0.01 0.00 76 1018.5
20260506090932 57 304 1.7 4.3 0.00 0.01 0.00 76 1018.4
20260506085948 57 303 0.9 3.5 0.00 0.05 0.00 76 1018.5
20260506085006 57 303 2.6 5.2 0.00 0.05 0.00 76 1018.5
20260506083945 57 303 0.9 5.2 0.00 0.05 0.00 76 1018.5
20260506083004 57 304 2.6 6.1 0.00 0.05 0.00 75 1018.7
20260506081947 57 292 2.6 5.2 0.00 0.05 0.00 75 1018.7
20260506080944 57 290 0.9 7.0 0.00 0.05 0.00 75 1018.6
20260506072955 57 284 3.5 5.2 0.00 0.10 0.05 76 1018.3
20260506071932 57 282 0.9 5.2 0.00 0.10 0.05 76 1018.3
20260506070933 57 282 3.5 7.8 0.00 0.10 0.05 76 1018.3
20260506061943 57 276 4.3 7.8 0.00 0.12 0.05 76 1017.8
20260506060944 57 277 5.2 7.8 0.00 0.12 0.05 76 1017.9